When you browse on this site, cookies collect data to enhance your experience and personalize the content and advertising you see.
Visit our Privacy Policy to learn more. By continuing to use the site, you agree to this use of cookies and data.
  • In Österreich
  • Länderverzeichnis
  • Für 7 Tage
  • Wassertemperatur
  • Wetterkarte
  • News
  • Widgets
  • user-avatar
    Anmelden

    Stündliche Wetter Krakow

    Heute, 19 September, Donnerstag

    Zeit Temperatur Niederschläge Wind Luftdruck Luftfeuchtigkeit
    00:00 +8°C° 0.1 mm 3 m/S 747 mmHg 80%
    01:00 +7°C° 0.1 mm 3 m/S 747 mmHg 84%
    02:00 +7°C° 0.1 mm 3 m/S 747 mmHg 86%
    03:00 +7°C° 0.1 mm 3 m/S 747 mmHg 87%
    04:00 +5°C° 0.1 mm 3 m/S 747 mmHg 89%
    05:00 +7°C° 0 mm 3 m/S 747 mmHg 86%
    06:00 +7°C° 0 mm 3 m/S 748 mmHg 83%
    07:00 +8°C° 0 mm 3 m/S 748 mmHg 80%
    08:00 +8°C° 0.1 mm 4 m/S 748 mmHg 75%
    09:00 +10°C° 0.1 mm 4 m/S 748 mmHg 70%
    10:00 +12°C° 0.1 mm 5 m/S 748 mmHg 65%
    11:00 +12°C° 0.3 mm 5 m/S 748 mmHg 63%
    12:00 +13°C° 0.3 mm 5 m/S 748 mmHg 62%
    13:00 +13°C° 0.3 mm 5 m/S 748 mmHg 60%
    14:00 +13°C° 0.1 mm 5 m/S 748 mmHg 61%
    15:00 +13°C° 0.1 mm 5 m/S 748 mmHg 62%
    16:00 +13°C° 0.1 mm 5 m/S 748 mmHg 64%
    17:00 +11°C° 0.4 mm 4 m/S 748 mmHg 70%
    18:00 +10°C° 0.4 mm 3 m/S 748 mmHg 76%
    19:00 +9°C° 0.4 mm 3 m/S 748 mmHg 82%
    20:00 +8°C° 0.2 mm 3 m/S 749 mmHg 84%
    21:00 +7°C° 0.2 mm 3 m/S 749 mmHg 85%
    22:00 +7°C° 0.2 mm 3 m/S 749 mmHg 87%
    23:00 +7°C° 0 mm 3 m/S 749 mmHg 88%

    Morgen, 20 September, Freitag

    Zeit Temperatur Niederschläge Wind Luftdruck Luftfeuchtigkeit
    00:00 +5°C° 0 mm 3 m/S 749 mmHg 88%
    01:00 +5°C° 0 mm 3 m/S 750 mmHg 89%
    02:00 +6°C° 0 mm 2 m/S 750 mmHg 90%
    03:00 +5°C° 0 mm 2 m/S 750 mmHg 91%
    04:00 +5°C° 0 mm 2 m/S 750 mmHg 92%
    05:00 +5°C° 0 mm 2 m/S 750 mmHg 90%
    06:00 +6°C° 0 mm 2 m/S 750 mmHg 88%
    07:00 +7°C° 0 mm 2 m/S 750 mmHg 86%
    08:00 +8°C° 0 mm 3 m/S 750 mmHg 79%
    09:00 +10°C° 0 mm 3 m/S 751 mmHg 71%
    10:00 +12°C° 0 mm 3 m/S 751 mmHg 64%
    11:00 +13°C° 0.1 mm 3 m/S 750 mmHg 60%
    12:00 +13°C° 0.1 mm 3 m/S 750 mmHg 56%
    13:00 +14°C° 0.1 mm 4 m/S 750 mmHg 53%
    14:00 +14°C° 0 mm 3 m/S 749 mmHg 54%
    15:00 +14°C° 0 mm 3 m/S 749 mmHg 56%
    16:00 +13°C° 0 mm 3 m/S 749 mmHg 58%
    17:00 +13°C° 0 mm 2 m/S 749 mmHg 63%
    18:00 +10°C° 0 mm 2 m/S 749 mmHg 69%
    19:00 +10°C° 0 mm 1 m/S 750 mmHg 74%
    20:00 +9°C° 0 mm 1 m/S 750 mmHg 76%
    21:00 +9°C° 0 mm 1 m/S 750 mmHg 77%
    22:00 +8°C° 0 mm 1 m/S 750 mmHg 78%
    23:00 +8°C° 0 mm 1 m/S 750 mmHg 80%

    übermorgen, 21 September, Samstag

    Zeit Temperatur Niederschläge Wind Luftdruck Luftfeuchtigkeit
    00:00 +8°C° 0 mm 1 m/S 750 mmHg 81%
    01:00 +7°C° 0 mm 1 m/S 750 mmHg 83%
    02:00 +7°C° 0 mm 1 m/S 750 mmHg 83%
    03:00 +7°C° 0 mm 1 m/S 750 mmHg 83%
    04:00 +7°C° 0 mm 1 m/S 750 mmHg 84%
    05:00 +8°C° 0 mm 1 m/S 750 mmHg 81%
    06:00 +8°C° 0 mm 1 m/S 750 mmHg 77%
    07:00 +9°C° 0 mm 1 m/S 749 mmHg 74%
    08:00 +11°C° 0 mm 1 m/S 749 mmHg 67%
    09:00 +14°C° 0 mm 1 m/S 749 mmHg 60%
    10:00 +16°C° 0 mm 1 m/S 749 mmHg 53%
    11:00 +17°C° 0 mm 2 m/S 749 mmHg 50%
    12:00 +18°C° 0 mm 2 m/S 749 mmHg 47%
    13:00 +18°C° 0 mm 2 m/S 748 mmHg 44%
    14:00 +18°C° 0 mm 2 m/S 748 mmHg 47%
    15:00 +18°C° 0 mm 2 m/S 748 mmHg 49%
    16:00 +19°C° 0 mm 1 m/S 747 mmHg 52%
    17:00 +16°C° 0 mm 1 m/S 747 mmHg 56%
    18:00 +14°C° 0 mm 1 m/S 747 mmHg 61%
    19:00 +12°C° 0 mm 1 m/S 747 mmHg 66%
    20:00 +12°C° 0 mm 1 m/S 747 mmHg 68%
    21:00 +11°C° 0 mm 1 m/S 747 mmHg 70%
    22:00 +11°C° 0 mm 1 m/S 747 mmHg 72%
    23:00 +11°C° 0 mm 1 m/S 747 mmHg 73%

    22 September, Sonntag

    Zeit Temperatur Niederschläge Wind Luftdruck Luftfeuchtigkeit
    00:00 +10°C° 0 mm 1 m/S 747 mmHg 74%
    01:00 +10°C° 0 mm 1 m/S 747 mmHg 75%
    02:00 +10°C° 0 mm 1 m/S 746 mmHg 76%
    03:00 +10°C° 0 mm 1 m/S 746 mmHg 76%
    04:00 +9°C° 0 mm 1 m/S 746 mmHg 76%
    05:00 +10°C° 0 mm 1 m/S 746 mmHg 74%
    06:00 +11°C° 0 mm 1 m/S 746 mmHg 72%
    07:00 +12°C° 0 mm 1 m/S 746 mmHg 70%
    08:00 +14°C° 0 mm 1 m/S 745 mmHg 63%
    09:00 +16°C° 0 mm 2 m/S 745 mmHg 56%
    10:00 +18°C° 0 mm 2 m/S 745 mmHg 50%
    11:00 +19°C° 0 mm 2 m/S 744 mmHg 47%
    12:00 +20°C° 0 mm 2 m/S 744 mmHg 45%
    13:00 +21°C° 0 mm 2 m/S 743 mmHg 42%
    14:00 +21°C° 0 mm 2 m/S 743 mmHg 46%
    15:00 +21°C° 0 mm 2 m/S 743 mmHg 50%
    16:00 +20°C° 0 mm 2 m/S 742 mmHg 53%
    17:00 +19°C° 0 mm 2 m/S 742 mmHg 57%
    18:00 +17°C° 0 mm 2 m/S 742 mmHg 61%
    19:00 +15°C° 0 mm 1 m/S 741 mmHg 65%
    20:00 +15°C° 0 mm 1 m/S 741 mmHg 63%
    21:00 +15°C° 0 mm 1 m/S 741 mmHg 60%
    22:00 +16°C° 0 mm 1 m/S 740 mmHg 57%
    23:00 +16°C° 0 mm 2 m/S 740 mmHg 56%

    23 September, Montag

    Zeit Temperatur Niederschläge Wind Luftdruck Luftfeuchtigkeit
    00:00 +16°C° 0 mm 2 m/S 740 mmHg 55%
    01:00 +16°C° 0 mm 2 m/S 739 mmHg 54%
    02:00 +15°C° 0 mm 2 m/S 739 mmHg 54%
    03:00 +15°C° 0 mm 2 m/S 738 mmHg 53%
    04:00 +14°C° 0 mm 1 m/S 738 mmHg 53%
    05:00 +15°C° 0 mm 1 m/S 738 mmHg 55%
    06:00 +15°C° 0 mm 1 m/S 738 mmHg 57%
    07:00 +15°C° 0 mm 1 m/S 737 mmHg 59%
    08:00 +17°C° 0 mm 2 m/S 737 mmHg 55%
    09:00 +19°C° 0 mm 2 m/S 737 mmHg 52%
    10:00 +21°C° 0 mm 2 m/S 737 mmHg 49%
    11:00 +21°C° 0 mm 3 m/S 737 mmHg 51%
    12:00 +22°C° 0 mm 4 m/S 737 mmHg 52%
    13:00 +22°C° 0 mm 4 m/S 736 mmHg 54%
    14:00 +21°C° 0 mm 4 m/S 736 mmHg 59%
    15:00 +20°C° 0 mm 4 m/S 736 mmHg 64%
    16:00 +19°C° 0 mm 3 m/S 736 mmHg 69%
    17:00 +18°C° 0 mm 3 m/S 737 mmHg 72%
    18:00 +17°C° 0 mm 3 m/S 737 mmHg 74%
    19:00 +17°C° 0 mm 3 m/S 737 mmHg 77%
    20:00 +15°C° 0.4 mm 4 m/S 737 mmHg 82%
    21:00 +15°C° 0.4 mm 4 m/S 737 mmHg 87%
    22:00 +14°C° 0.4 mm 4 m/S 738 mmHg 91%
    23:00 +14°C° 0.3 mm 5 m/S 738 mmHg 90%

    24 September, Dienstag

    Zeit Temperatur Niederschläge Wind Luftdruck Luftfeuchtigkeit
    00:00 +13°C° 0.3 mm 5 m/S 738 mmHg 89%
    01:00 +13°C° 0.3 mm 5 m/S 738 mmHg 88%
    02:00 +13°C° 0.1 mm 5 m/S 738 mmHg 88%
    03:00 +13°C° 0.1 mm 4 m/S 738 mmHg 89%
    04:00 +13°C° 0.1 mm 4 m/S 738 mmHg 89%
    05:00 +13°C° 0.3 mm 4 m/S 738 mmHg 89%
    06:00 +13°C° 0.3 mm 5 m/S 738 mmHg 88%
    07:00 +13°C° 0.3 mm 5 m/S 738 mmHg 88%
    08:00 +13°C° 1.5 mm 5 m/S 738 mmHg 89%
    09:00 +13°C° 1.5 mm 5 m/S 738 mmHg 89%
    10:00 +13°C° 1.5 mm 5 m/S 739 mmHg 90%
    11:00 +13°C° 0.8 mm 5 m/S 739 mmHg 89%
    12:00 +13°C° 0.8 mm 4 m/S 738 mmHg 88%
    13:00 +13°C° 0.8 mm 4 m/S 738 mmHg 87%
    14:00 +14°C° 0.1 mm 3 m/S 738 mmHg 83%
    15:00 +16°C° 0.1 mm 3 m/S 739 mmHg 80%
    16:00 +17°C° 0.1 mm 2 m/S 739 mmHg 76%
    17:00 +16°C° 0 mm 2 m/S 739 mmHg 79%
    18:00 +15°C° 0 mm 2 m/S 739 mmHg 83%
    19:00 +14°C° 0 mm 2 m/S 739 mmHg 86%
    20:00 +13°C° 0 mm 2 m/S 739 mmHg 87%
    21:00 +12°C° 0 mm 3 m/S 739 mmHg 89%
    22:00 +12°C° 0 mm 3 m/S 739 mmHg 90%
    23:00 +12°C° 0 mm 3 m/S 739 mmHg 91%
    Mehr zeigen